PGT586J LTBJ-LTFJ

Flight info

Callsign PGT586J
Flight time 0h 41m
Altitude 30000
Route BERGO UG80 DUGLA UY371 VUTZO
Aircraft A20N/M-SDE2E3FGHIRWXY/LB1

Departure

Time 2026-05-03 21:11
Airport Adnan Menderes International Airport (LTBJ)

Arrival

Time 2026-05-03 21:52
Airport Istanbul Sabiha Gökçen International Airport (LTFJ)
Time Latitude Longitude Altitude Speed Heading
2026-05-03 20:51 38.29672 27.15122 402 ft 0 kts 76°
2026-05-03 21:01 38.29671 27.15119 402 ft 2 kts 76°
2026-05-03 21:01 38.29668 27.15101 402 ft 2 kts 76°
2026-05-03 21:01 38.29664 27.15082 402 ft 2 kts 76°
2026-05-03 21:02 38.29661 27.15064 402 ft 2 kts 76°
2026-05-03 21:02 38.29659 27.15045 402 ft 2 kts 115°
2026-05-03 21:02 38.29669 27.15031 402 ft 1 kts 157°
2026-05-03 21:02 38.29675 27.15029 402 ft 1 kts 172°
2026-05-03 21:03 38.29679 27.15029 402 ft 0 kts 167°
2026-05-03 21:05 38.29671 27.15031 402 ft 3 kts 167°
2026-05-03 21:05 38.29632 27.15043 401 ft 7 kts 165°
2026-05-03 21:05 38.29567 27.15064 400 ft 11 kts 166°
2026-05-03 21:05 38.29480 27.15089 399 ft 14 kts 167°
2026-05-03 21:06 38.29402 27.15112 399 ft 4 kts 166°
2026-05-03 21:06 38.29357 27.15127 399 ft 8 kts 154°
2026-05-03 21:06 38.29347 27.15200 399 ft 9 kts 75°
2026-05-03 21:06 38.29360 27.15271 400 ft 7 kts 76°
2026-05-03 21:07 38.29370 27.15323 401 ft 5 kts 76°
2026-05-03 21:07 38.29379 27.15368 401 ft 5 kts 76°
2026-05-03 21:07 38.29383 27.15418 402 ft 6 kts 106°
2026-05-03 21:07 38.29319 27.15457 402 ft 14 kts 167°
2026-05-03 21:08 38.29188 27.15496 401 ft 23 kts 166°
2026-05-03 21:08 38.29001 27.15552 400 ft 29 kts 166°
2026-05-03 21:08 38.28799 27.15613 399 ft 29 kts 166°
2026-05-03 21:08 38.28595 27.15676 396 ft 30 kts 166°
2026-05-03 21:09 38.28384 27.15738 392 ft 31 kts 167°
2026-05-03 21:09 38.28205 27.15789 388 ft 16 kts 167°
2026-05-03 21:09 38.28141 27.15830 386 ft 9 kts 109°
2026-05-03 21:09 38.28148 27.15910 387 ft 8 kts 72°
2026-05-03 21:10 38.28162 27.15968 388 ft 5 kts 73°
2026-05-03 21:10 38.28178 27.16002 389 ft 3 kts 32°
2026-05-03 21:10 38.28195 27.16006 390 ft 2 kts 356°
2026-05-03 21:10 38.28235 27.15996 391 ft 17 kts 346°
2026-05-03 21:11 38.28609 27.15885 401 ft 90 kts 347°
2026-05-03 21:11 38.29418 27.15640 488 ft 140 kts 346°
2026-05-03 21:11 38.30348 27.15348 1208 ft 139 kts 348°
2026-05-03 21:11 38.31247 27.15076 2071 ft 135 kts 349°
2026-05-03 21:12 38.32195 27.14793 2654 ft 149 kts 349°
2026-05-03 21:12 38.33259 27.14476 3208 ft 166 kts 350°
2026-05-03 21:12 38.34466 27.14120 3699 ft 190 kts 351°
2026-05-03 21:12 38.35806 27.13721 4334 ft 208 kts 351°
2026-05-03 21:13 38.37261 27.13287 5059 ft 223 kts 351°
2026-05-03 21:13 38.38801 27.12824 5873 ft 234 kts 351°
2026-05-03 21:13 38.40376 27.12345 6874 ft 237 kts 352°
2026-05-03 21:13 38.41975 27.11867 7821 ft 241 kts 351°
2026-05-03 21:14 38.43605 27.11379 8734 ft 246 kts 350°
2026-05-03 21:14 38.45273 27.10878 9599 ft 251 kts 350°
2026-05-03 21:14 38.46991 27.10360 10448 ft 257 kts 349°
2026-05-03 21:14 38.48773 27.09820 11010 ft 273 kts 349°
2026-05-03 21:15 38.50684 27.09241 11478 ft 291 kts 349°
2026-05-03 21:15 38.52715 27.08624 11906 ft 309 kts 349°
2026-05-03 21:15 38.54881 27.07968 12293 ft 327 kts 348°
2026-05-03 21:15 38.57155 27.07277 12678 ft 344 kts 348°
2026-05-03 21:16 38.59520 27.06693 13337 ft 350 kts 354°
2026-05-03 21:16 38.61951 27.06511 14097 ft 352 kts
2026-05-03 21:16 38.64399 27.06733 14816 ft 356 kts
2026-05-03 21:16 38.66863 27.07155 15497 ft 360 kts
2026-05-03 21:17 38.69351 27.07612 16183 ft 364 kts
2026-05-03 21:17 38.71026 27.07924 16618 ft 367 kts
2026-05-03 21:17 38.74410 27.08554 17476 ft 372 kts
2026-05-03 21:17 38.76978 27.09029 18111 ft 376 kts
2026-05-03 21:18 38.79574 27.09509 18708 ft 379 kts
2026-05-03 21:18 38.82196 27.09993 19298 ft 384 kts
2026-05-03 21:18 38.84850 27.10482 19844 ft 388 kts
2026-05-03 21:18 38.87539 27.10978 20374 ft 393 kts
2026-05-03 21:19 38.90251 27.11481 20922 ft 397 kts
2026-05-03 21:19 38.93007 27.11992 21450 ft 401 kts
2026-05-03 21:19 38.95785 27.12506 21972 ft 405 kts
2026-05-03 21:19 38.98731 27.13054 22517 ft 408 kts
2026-05-03 21:20 39.01692 27.13600 23039 ft 411 kts
2026-05-03 21:20 39.04555 27.14122 23500 ft 415 kts
2026-05-03 21:20 39.07423 27.14645 23967 ft 418 kts 10°
2026-05-03 21:20 39.10306 27.15171 24538 ft 418 kts 10°
2026-05-03 21:21 39.13196 27.15700 25106 ft 418 kts
2026-05-03 21:21 39.16081 27.16230 25619 ft 419 kts
2026-05-03 21:21 39.18976 27.16761 26124 ft 420 kts
2026-05-03 21:21 39.21861 27.17289 26657 ft 420 kts
2026-05-03 21:22 39.24758 27.17819 27209 ft 419 kts
2026-05-03 21:22 39.27637 27.18346 27731 ft 419 kts
2026-05-03 21:22 39.30534 27.18875 28254 ft 419 kts
2026-05-03 21:22 39.33424 27.19407 28702 ft 420 kts
2026-05-03 21:23 39.36346 27.19944 29099 ft 422 kts
2026-05-03 21:23 39.39261 27.20480 29475 ft 425 kts
2026-05-03 21:23 39.42191 27.21021 29838 ft 428 kts
2026-05-03 21:23 39.45143 27.21566 29986 ft 431 kts
2026-05-03 21:24 39.51052 27.23024 29996 ft 432 kts 15°
2026-05-03 21:24 39.56810 27.25217 29989 ft 432 kts 19°
2026-05-03 21:25 39.62615 27.27597 29995 ft 433 kts 19°
2026-05-03 21:25 39.68355 27.29945 29991 ft 433 kts 19°
2026-05-03 21:26 39.74136 27.32308 29986 ft 434 kts 19°
2026-05-03 21:26 39.79905 27.34677 29998 ft 436 kts 19°
2026-05-03 21:27 39.85710 27.37066 30007 ft 436 kts 19°
2026-05-03 21:27 39.91498 27.39450 30015 ft 437 kts 19°
2026-05-03 21:28 39.97300 27.41836 30010 ft 438 kts 19°
2026-05-03 21:28 40.03160 27.44251 30016 ft 439 kts 19°
2026-05-03 21:29 40.08984 27.46658 30016 ft 439 kts 19°
2026-05-03 21:29 40.14809 27.49066 29669 ft 433 kts 19°
2026-05-03 21:30 40.17665 27.50250 29034 ft 431 kts 19°
2026-05-03 21:30 40.20499 27.51425 28506 ft 425 kts 19°
2026-05-03 21:30 40.23309 27.52593 27987 ft 420 kts 19°
2026-05-03 21:30 40.26069 27.53743 27454 ft 415 kts 19°
2026-05-03 21:31 40.28761 27.55023 26871 ft 410 kts 25°
2026-05-03 21:31 40.31291 27.56695 26325 ft 405 kts 32°
2026-05-03 21:31 40.33616 27.58701 25823 ft 398 kts 37°
2026-05-03 21:31 40.35823 27.60837 25292 ft 394 kts 38°
2026-05-03 21:32 40.37994 27.62981 24750 ft 390 kts 38°
2026-05-03 21:32 40.40160 27.65118 24226 ft 386 kts 38°
2026-05-03 21:32 40.42306 27.67226 23722 ft 382 kts 38°
2026-05-03 21:32 40.44447 27.69261 23246 ft 378 kts 34°
2026-05-03 21:33 40.46596 27.71203 22776 ft 372 kts 42°
2026-05-03 21:33 40.48121 27.73881 22217 ft 369 kts 66°
2026-05-03 21:33 40.48859 27.77068 21770 ft 364 kts 75°
2026-05-03 21:33 40.49446 27.80275 21280 ft 361 kts 75°
2026-05-03 21:34 40.50056 27.83446 20924 ft 358 kts 74°
2026-05-03 21:34 40.50705 27.86590 20565 ft 357 kts 73°
2026-05-03 21:34 40.51380 27.89705 20127 ft 355 kts 72°
2026-05-03 21:34 40.52076 27.92815 19644 ft 351 kts 72°
2026-05-03 21:35 40.52772 27.95866 19186 ft 347 kts 71°
2026-05-03 21:35 40.53466 27.98871 18733 ft 343 kts 71°
2026-05-03 21:35 40.54155 28.01841 18285 ft 340 kts 71°
2026-05-03 21:35 40.54842 28.04789 17825 ft 337 kts 71°
2026-05-03 21:36 40.55527 28.07729 17378 ft 335 kts 71°
2026-05-03 21:36 40.56206 28.10636 16936 ft 333 kts 71°
2026-05-03 21:36 40.56880 28.13523 16485 ft 330 kts 70°
2026-05-03 21:36 40.57559 28.16432 16033 ft 328 kts 70°
2026-05-03 21:37 40.58222 28.19280 15576 ft 326 kts 70°
2026-05-03 21:37 40.58886 28.22133 15114 ft 323 kts 70°
2026-05-03 21:37 40.59538 28.24943 14663 ft 321 kts 70°
2026-05-03 21:37 40.60185 28.27732 14199 ft 318 kts 70°
2026-05-03 21:38 40.60829 28.30499 13757 ft 316 kts 70°
2026-05-03 21:38 40.61466 28.33245 13288 ft 314 kts 69°
2026-05-03 21:38 40.62094 28.35967 12845 ft 310 kts 69°
2026-05-03 21:38 40.62717 28.38653 12450 ft 306 kts 69°
2026-05-03 21:39 40.63332 28.41317 12046 ft 304 kts 69°
2026-05-03 21:39 40.63941 28.43957 11647 ft 301 kts 69°
2026-05-03 21:39 40.64545 28.46578 11241 ft 299 kts 69°
2026-05-03 21:39 40.65142 28.49179 10828 ft 296 kts 69°
2026-05-03 21:40 40.65733 28.51753 10426 ft 292 kts 69°
2026-05-03 21:40 40.66315 28.54287 10024 ft 288 kts 68°
2026-05-03 21:40 40.66888 28.56786 9622 ft 284 kts 68°
2026-05-03 21:40 40.67452 28.59250 9217 ft 280 kts 68°
2026-05-03 21:41 40.68008 28.61679 8815 ft 276 kts 68°
2026-05-03 21:41 40.68556 28.64078 8397 ft 273 kts 68°
2026-05-03 21:41 40.69100 28.66462 7987 ft 270 kts 68°
2026-05-03 21:41 40.69638 28.68812 7589 ft 267 kts 68°
2026-05-03 21:42 40.70167 28.71135 7171 ft 264 kts 68°
2026-05-03 21:42 40.70691 28.73436 6760 ft 262 kts 68°
2026-05-03 21:42 40.71211 28.75721 6351 ft 260 kts 68°
2026-05-03 21:42 40.71726 28.77986 5990 ft 255 kts 68°
2026-05-03 21:43 40.72224 28.80189 5755 ft 247 kts 68°
2026-05-03 21:43 40.72708 28.82328 5522 ft 241 kts 68°
2026-05-03 21:43 40.73188 28.84444 5294 ft 241 kts 68°
2026-05-03 21:43 40.73669 28.86563 5061 ft 240 kts 68°
2026-05-03 21:44 40.74145 28.88663 4835 ft 239 kts 68°
2026-05-03 21:44 40.74618 28.90756 4606 ft 238 kts 68°
2026-05-03 21:44 40.75090 28.92845 4378 ft 238 kts 68°
2026-05-03 21:44 40.75561 28.94938 4150 ft 236 kts 68°
2026-05-03 21:45 40.76021 28.96988 3916 ft 230 kts 68°
2026-05-03 21:45 40.76466 28.98975 3683 ft 223 kts 67°
2026-05-03 21:45 40.76924 29.00895 3462 ft 215 kts 62°
2026-05-03 21:45 40.77573 29.02601 3341 ft 201 kts 53°
2026-05-03 21:46 40.78295 29.04130 3229 ft 192 kts 52°
2026-05-03 21:46 40.79009 29.05604 3130 ft 189 kts 52°
2026-05-03 21:46 40.79737 29.07104 3025 ft 188 kts 52°
2026-05-03 21:46 40.80441 29.08589 2991 ft 181 kts 54°
2026-05-03 21:47 40.80994 29.10018 3006 ft 166 kts 57°
2026-05-03 21:47 40.81481 29.11308 3059 ft 147 kts 56°
2026-05-03 21:47 40.81915 29.12438 2998 ft 130 kts 54°
2026-05-03 21:47 40.82317 29.13490 2992 ft 127 kts 54°
2026-05-03 21:48 40.82717 29.14549 2888 ft 127 kts 55°
2026-05-03 21:48 40.83109 29.15603 2711 ft 126 kts 55°
2026-05-03 21:48 40.83498 29.16661 2536 ft 125 kts 55°
2026-05-03 21:48 40.83883 29.17712 2365 ft 125 kts 55°
2026-05-03 21:49 40.84261 29.18749 2214 ft 124 kts 55°
2026-05-03 21:49 40.84638 29.19785 2037 ft 123 kts 55°
2026-05-03 21:49 40.85019 29.20826 1866 ft 123 kts 55°
2026-05-03 21:49 40.85394 29.21854 1699 ft 122 kts 55°
2026-05-03 21:50 40.85773 29.22889 1530 ft 122 kts 55°
2026-05-03 21:50 40.86143 29.23898 1364 ft 122 kts 56°
2026-05-03 21:50 40.86512 29.24905 1199 ft 122 kts 56°
2026-05-03 21:50 40.86885 29.25923 1030 ft 121 kts 57°
2026-05-03 21:51 40.87252 29.26926 847 ft 121 kts 57°
2026-05-03 21:51 40.87624 29.27923 669 ft 121 kts 57°
2026-05-03 21:51 40.87989 29.28920 511 ft 120 kts 58°
2026-05-03 21:51 40.88353 29.29909 354 ft 119 kts 58°
2026-05-03 21:52 40.88709 29.30871 291 ft 110 kts 59°
2026-05-03 21:52 40.88975 29.31580 297 ft 63 kts 65°
2026-05-03 21:52 40.89155 29.32078 299 ft 55 kts 61°
2026-05-03 21:52 40.89312 29.32504 299 ft 48 kts 64°
2026-05-03 21:53 40.89448 29.32859 302 ft 29 kts 60°
2026-05-03 21:53 40.89531 29.33072 304 ft 24 kts 62°
2026-05-03 21:53 40.89580 29.33176 306 ft 11 kts 51°
2026-05-03 21:53 40.89641 29.33245 307 ft 11 kts 35°
2026-05-03 21:54 40.89705 29.33301 309 ft 10 kts 32°
2026-05-03 21:54 40.89762 29.33347 310 ft 8 kts 27°
2026-05-03 21:54 40.89815 29.33325 310 ft 9 kts 278°
2026-05-03 21:54 40.89787 29.33229 309 ft 12 kts 245°
2026-05-03 21:55 40.89746 29.33122 308 ft 13 kts 243°
2026-05-03 21:55 40.89702 29.33000 307 ft 15 kts 246°
2026-05-03 21:55 40.89655 29.32867 306 ft 16 kts 245°
2026-05-03 21:55 40.89605 29.32726 305 ft 17 kts 245°
2026-05-03 21:56 40.89547 29.32580 304 ft 18 kts 245°
2026-05-03 21:56 40.89500 29.32449 304 ft 11 kts 244°
2026-05-03 21:56 40.89509 29.32370 304 ft 10 kts 324°
2026-05-03 21:56 40.89580 29.32343 304 ft 11 kts 355°
2026-05-03 21:57 40.89649 29.32308 306 ft 10 kts 333°
2026-05-03 21:57 40.89707 29.32271 308 ft 7 kts 334°
2026-05-03 21:57 40.89745 29.32283 309 ft 6 kts 55°
2026-05-03 21:57 40.89768 29.32340 309 ft 5 kts 63°
2026-05-03 21:58 40.89777 29.32362 309 ft 0 kts 62°